Location: Gro� Glienicke
(52.4675°N, 13.1079°E)
Time: 17:20:20
(UTC+00:00)

CZ-4 R/B - Pass Details

Date: 06 July 2020
Orbit: 682 x 752 km, 98.5° (Epoch: 13 August)

Event Time Altitude Azimuth Distance (km) Brightness Sun altitude
Rises 23:22:45 0° 18° (NNE) 3,065 8.7 -14.9°
Reaches altitude 10° 23:25:02 10° 22° (NNE) 2,149 7.5 -14.9°
Maximum altitude 23:29:40 57° 102° (ESE) 817 4.1 -14.9°
Enters shadow 23:32:26 24° 173° (S) 1,449 4.8 -14.8°
